, SD

(GMT )
Rapid City

Weather History for KRAP - August, 2013

Change the Weather History Date:

Friday, August 9, 2013

  Actual Average Record
Temperature  
Mean Temperature 68 °F 73 °F  
Max Temperature 78 °F 88 °F 106 °F (1947)
Min Temperature 57 °F 58 °F 47 °F (1995)
Degree Days  
Heating Degree Days 0 0  
Month to date heating degree days 0 0  
Since 1 June heating degree days 85 114  
Since 1 July heating degree days 5 15  
Cooling Degree Days 3 8  
Month to date cooling degree days 48 80  
Year to date cooling degree days 394 429  
Since 1 June cooling degree days 386 414  
Growing Degree Days 18 (Base 50)    
Moisture  
Dew Point 59 °F    
Average Humidity 71    
Maximum Humidity 93    
Minimum Humidity 48    
Precipitation  
Precipitation 0.52 in 0.06 in 0.96 in (1950)
Month to date precipitation 2.01 0.54  
Year to date precipitation 13.66 11.61  
Snow  
Snow 0.00 in 0.00 in 0.00 in ()
Month to date snowfall 0.0 0.0  
Since 1 June snowfall 0.0 0.0  
Since 1 July snowfall 0.0 0.0  
Snow Depth 0.00 in    
Sea Level Pressure  
Sea Level Pressure 30.12 in    
Wind  
Wind Speed 5 mph (NNE)    
Max Wind Speed 15 mph    
Max Gust Speed 18 mph    
Visibility 9 miles    
Events Rain , Thunderstorm    
T = Trace of Precipitation, MM = Missing Value Source: NWS Daily Summary

Daily Weather History Graph

Daily Weather History Graph

Search for Another Location

Airport or City:

Trip Planner

Search our weather history database for the weather conditions in past years. The results will help you decide how hot, cold, wet, or windy it might be!

Date:

Astronomy

Aug. 09, 2013 Rise Set
Actual Time 5:49 AM MDT 8:05 PM MDT
Civil Twilight 5:17 AM MDT 8:36 PM MDT
Nautical Twilight 4:37 AM MDT 9:16 PM MDT
Astronomical Twilight 3:53 AM MDT 10:00 PM MDT
Moon 8:46 AM MDT (8/9) 9:06 PM MDT (8/9)
Length of Visible Light 15h 19m
Length of Day
14h 15m
Waxing Crescent, 8% of the Moon is Illuminated
Aug 9
Waxing Crescent
Aug 14
First Quarter
Aug 20
Full
Aug 28
Last Quarter
Sep 5
New

Hourly Weather History & Observations

Time (MDT) Temp. Dew Point Humidity Pressure Visibility Wind Dir Wind Speed Gust Speed Precip Events Conditions
12:41 AM 66.2 °F 59.0 °F 78% 30.12 in 10.0 mi Calm Calm - N/A   Overcast
12:52 AM 66.0 °F 59.0 °F 78% 30.05 in 10.0 mi Calm Calm - N/A Thunderstorm Overcast
1:20 AM 64.4 °F 57.2 °F 77% 30.11 in 10.0 mi SSE 4.6 mph - N/A   Overcast
1:38 AM 64.4 °F 57.2 °F 77% 30.12 in 10.0 mi West 4.6 mph - N/A Thunderstorm Mostly Cloudy
1:52 AM 63.0 °F 57.9 °F 84% 30.05 in 10.0 mi NW 5.8 mph - N/A   Partly Cloudy
2:52 AM 64.0 °F 59.0 °F 84% 30.05 in 10.0 mi North 8.1 mph - N/A Thunderstorm Thunderstorm
3:14 AM 62.6 °F 60.8 °F 94% 30.15 in 2.0 mi Variable 4.6 mph - 0.05 in Rain , Thunderstorm Heavy Thunderstorms and Rain
3:20 AM 60.8 °F 60.8 °F 100% 30.14 in 0.8 mi East 5.8 mph - 0.26 in Rain , Thunderstorm Heavy Thunderstorms and Rain
3:22 AM 60.8 °F 59.0 °F 94% 30.14 in 0.8 mi Variable 3.5 mph - 0.32 in Rain , Thunderstorm Heavy Thunderstorms and Rain
3:25 AM 60.8 °F 59.0 °F 94% 30.16 in 1.0 mi Variable 3.5 mph - 0.43 in Rain , Thunderstorm Heavy Thunderstorms and Rain
3:35 AM 59.0 °F 57.2 °F 94% 30.16 in 3.0 mi SSW 9.2 mph - 0.51 in Rain , Thunderstorm Thunderstorms and Rain
3:47 AM 57.2 °F 57.2 °F 100% 30.14 in 10.0 mi Calm Calm - 0.52 in Rain , Thunderstorm Light Thunderstorms and Rain
3:52 AM 57.9 °F 55.9 °F 93% 30.08 in 10.0 mi ENE 6.9 mph - 0.52 in Rain , Thunderstorm Light Rain
4:00 AM 57.2 °F 57.2 °F 100% 30.14 in 10.0 mi NE 3.5 mph - 0.00 in Thunderstorm Mostly Cloudy
4:17 AM 57.2 °F 57.2 °F 100% 30.14 in 10.0 mi Calm Calm - 0.00 in   Scattered Clouds
4:52 AM 57.9 °F 55.0 °F 90% 30.05 in 10.0 mi South 9.2 mph - 0.00 in   Partly Cloudy
5:48 AM 59.0 °F 57.2 °F 94% 30.14 in 10.0 mi ENE 3.5 mph - N/A   Overcast
5:52 AM 60.1 °F 57.0 °F 90% 30.09 in 10.0 mi ENE 5.8 mph - N/A   Overcast
6:21 AM 59.0 °F 55.4 °F 88% 30.14 in 10.0 mi WNW 3.5 mph - N/A   Scattered Clouds
6:52 AM 61.0 °F 57.9 °F 90% 30.11 in 10.0 mi NNW 4.6 mph - N/A   Mostly Cloudy
7:13 AM 60.8 °F 57.2 °F 88% 30.16 in 10.0 mi WNW 3.5 mph - N/A   Overcast
7:52 AM 61.0 °F 57.9 °F 90% 30.12 in 10.0 mi NW 8.1 mph - N/A   Clear
8:52 AM 63.0 °F 57.9 °F 84% 30.12 in 10.0 mi WNW 8.1 mph - N/A   Overcast
9:52 AM 70.0 °F 57.0 °F 63% 30.12 in 10.0 mi NNW 3.5 mph - N/A   Scattered Clouds
10:52 AM 73.0 °F 55.9 °F 55% 30.12 in 10.0 mi Calm Calm - N/A   Clear
11:52 AM 73.9 °F 59.0 °F 59% 30.12 in 10.0 mi Variable 3.5 mph - N/A   Mostly Cloudy
12:52 PM 73.9 °F 57.9 °F 57% 30.10 in 10.0 mi Calm Calm - N/A   Partly Cloudy
1:52 PM 77.0 °F 57.9 °F 52% 30.09 in 10.0 mi Variable 3.5 mph - N/A   Partly Cloudy
2:52 PM 75.0 °F 57.9 °F 55% 30.08 in 10.0 mi SE 5.8 mph - N/A   Clear
3:52 PM 78.1 °F 57.9 °F 50% 30.09 in 10.0 mi East 9.2 mph - N/A   Partly Cloudy
4:52 PM 73.9 °F 57.9 °F 57% 30.10 in 10.0 mi East 3.5 mph - N/A   Mostly Cloudy
5:26 PM 73.4 °F 60.8 °F 65% 30.14 in 10.0 mi SSE 3.5 mph - N/A Thunderstorm Overcast
5:52 PM 73.0 °F 59.0 °F 61% 30.10 in 10.0 mi Calm Calm - N/A   Mostly Cloudy
6:28 PM 71.6 °F 60.8 °F 69% 30.15 in 10.0 mi WSW 6.9 mph - N/A Thunderstorm Mostly Cloudy
6:52 PM 70.0 °F 60.1 °F 71% 30.11 in 10.0 mi WNW 5.8 mph - N/A Thunderstorm Thunderstorm
7:09 PM 69.8 °F 60.8 °F 73% 30.17 in 10.0 mi North 6.9 mph 16.1 mph N/A Thunderstorm Overcast
7:41 PM 66.2 °F 60.8 °F 83% 30.17 in 10.0 mi ENE 11.5 mph - N/A   Mostly Cloudy
7:52 PM 66.9 °F 61.0 °F 81% 30.13 in 10.0 mi ENE 9.2 mph - N/A   Mostly Cloudy
8:52 PM 64.9 °F 61.0 °F 87% 30.13 in 10.0 mi East 6.9 mph - N/A   Clear
9:52 PM 64.9 °F 61.0 °F 87% 30.15 in 10.0 mi SE 10.4 mph - N/A   Overcast
10:52 PM 63.0 °F 61.0 °F 93% 30.14 in 10.0 mi Calm Calm - N/A   Partly Cloudy
11:52 PM 64.0 °F 61.0 °F 90% 30.13 in 10.0 mi West 3.5 mph - N/A   Clear